Back to catalog

CZ-4 DEB

AlivePO
NORAD 26205·DEBRIS·🇨🇳 China

Launched Oct 14, 1999 from Taiyuan Satellite Launch Center

Loading…

Next Passes (next 24 hours)

TLE

FreshSource: Space-Track

Epoch: Sep 14, 2026, 08:13 UTC

1 26205U 99057CT  26257.34264071  .00000500  00000-0  52269-3 0  9996
2 26205  99.1624 224.4907 0640406   2.8862 357.5684 13.13028435264765

Track CZ-4 DEB in real time with AllMySat

Download on the App Store